This is the latest recevied weather packets stored in our database for station/object K5GTX. If no packets are shown the sender has not sent any weather packets the latest 10 day(s).
| Time | Temp. | Humidity | Pressure | Rain* | Wind** | Luminosity | Snow |
|---|---|---|---|---|---|---|---|
| 1777928982 | 27.22° C | 99% | 1014 hPa | 0 mm | - | 284 W/m² | - |
| 1777928679 | 27.78° C | 99% | 1014.2 hPa | 0 mm | - | 481 W/m² | - |
| 1777928376 | 27.78° C | 99% | 1014.4 hPa | 0 mm | - | 477 W/m² | - |
| 1777928073 | 28.33° C | 99% | 1014.3 hPa | 0 mm | - | 541 W/m² | - |
| 1777927771 | 27.78° C | 99% | 1014.4 hPa | 0 mm | - | 482 W/m² | - |
| 1777927469 | 27.22° C | 99% | 1014.6 hPa | 0 mm | - | 476 W/m² | - |
| 1777927168 | 27.22° C | 99% | 1014.5 hPa | 0 mm | - | 488 W/m² | - |
| 1777926865 | 27.78° C | 99% | 1014.8 hPa | 0 mm | - | 549 W/m² | - |
| 1777926561 | 27.22° C | 99% | 1015 hPa | 0 mm | - | 527 W/m² | - |
| 1777926258 | 27.22° C | 99% | 1014.9 hPa | 0 mm | - | 586 W/m² | - |
| 1777925955 | 27.22° C | 99% | 1015 hPa | 0 mm | - | 629 W/m² | - |
| 1777925652 | 27.78° C | 99% | 1015 hPa | 0 mm | - | 520 W/m² | - |
| 1777925349 | 27.78° C | 99% | 1015.4 hPa | 0 mm | - | 528 W/m² | - |
| 1777925046 | 27.22° C | 99% | 1015.4 hPa | 0 mm | - | 324 W/m² | - |
| 1777924743 | 27.22° C | 99% | 1015.8 hPa | 0 mm | - | 316 W/m² | - |
| 1777924438 | 27.22° C | 99% | 1015.6 hPa | 0 mm | - | 363 W/m² | - |
| 1777924135 | 27.22° C | 99% | 1016 hPa | 0 mm | - | 639 W/m² | - |
| 1777923831 | 26.67° C | 99% | 1015.9 hPa | 0 mm | - | 592 W/m² | - |
| 1777923527 | 26.67° C | 99% | 1015.9 hPa | 0 mm | - | 659 W/m² | - |
| 1777923224 | 26.67° C | 99% | 1015.8 hPa | 0 mm | - | 645 W/m² | - |
| 1777922923 | 26.67° C | 99% | 1016.3 hPa | 0 mm | - | 526 W/m² | - |
| 1777922621 | 26.11° C | 99% | 1016.2 hPa | 0 mm | - | 598 W/m² | - |
| 1777922319 | 26.11° C | 99% | 1016 hPa | 0 mm | - | 417 W/m² | - |
| 1777922017 | 26.11° C | 99% | 1016.5 hPa | 0 mm | - | 473 W/m² | - |
| 1777921712 | 26.67° C | 99% | 1016.7 hPa | 0 mm | - | 597 W/m² | - |
* Rain latest hour (hover to see other rain measurements)
** Current wind speed in m/s (hover to see current wind gust speed)